PD3EM Weather Reports


Display with metric or nautical units.
time (UTC)temp
F
wind
direction
speed
MPH
gust
MPH
rain 1hr
in
rain 24hr
in
rain mn
in
humidity
%
barometer
mb
20260507072655 53 344 4.0 5.0 0.00 0.00 0.00 81 1017.6
20260507071654 53 349 1.0 3.0 0.00 0.00 0.00 81 1017.5
20260507070653 53 0 2.0 2.0 0.00 0.00 0.00 82 1017.5
20260507065712 52 0.0 0.0 0.00 0.00 0.00 85 1017.7
20260507064650 51 0.0 2.0 0.00 0.00 0.00 86 1017.4
20260507063650 50 0.0 2.0 0.00 0.00 0.00 87 1017.2
20260507062728 50 0.0 1.0 0.00 0.00 0.00 88 1017.2
20260507061727 49 329 2.0 2.0 0.00 0.00 0.00 89 1017.1
20260507060646 48 299 2.0 6.0 0.00 0.00 0.00 90 1017.3
20260507055824 47 34 2.0 3.0 0.00 0.00 0.00 91 1017.0
20260507054643 46 293 3.0 4.0 0.00 0.00 0.00 91 1016.8
20260507053642 46 265 2.0 4.0 0.00 0.00 0.00 91 1016.9
20260507052641 45 345 3.0 3.0 0.00 0.00 0.00 92 1016.7
20260507051640 45 277 1.0 4.0 0.00 0.00 0.00 92 1016.7
20260507050638 44 21 4.0 5.0 0.00 0.00 0.00 92 1016.5
20260507045637 44 0.0 2.0 0.00 0.00 0.00 91 1016.4
20260507044636 43 348 2.0 2.0 0.00 0.00 0.00 91 1016.3
20260507043635 43 333 2.0 2.0 0.00 0.00 0.00 91 1016.0
20260507042634 43 0.0 2.0 0.00 0.00 0.00 91 1016.1
20260507041713 43 22 3.0 4.0 0.00 0.00 0.00 90 1015.9
20260507040631 43 354 1.0 3.0 0.00 0.00 0.00 90 1016.0
20260507035630 43 102 2.0 2.0 0.00 0.00 0.00 89 1016.1
20260507034629 43 0.0 3.0 0.00 0.00 0.00 89 1016.0
20260507033628 44 162 2.0 3.0 0.00 0.00 0.00 88 1015.8
20260507032627 44 282 4.0 4.0 0.00 0.00 0.00 88 1015.7
20260507031625 44 343 2.0 3.0 0.00 0.00 0.00 87 1015.8
20260507030624 45 175 2.0 3.0 0.00 0.00 0.00 86 1015.9
20260507025703 45 301 2.0 4.0 0.00 0.00 0.00 86 1015.6
20260507024622 46 331 4.0 4.0 0.00 0.00 0.00 86 1015.6
20260507023700 46 0.0 3.0 0.00 0.00 0.00 85 1015.6
20260507022619 46 356 3.0 6.0 0.00 0.00 0.00 86 1015.5
20260507021618 46 72 3.0 3.0 0.00 0.00 0.00 86 1015.2
20260507020617 46 29 2.0 3.0 0.00 0.00 0.00 86 1015.3
20260507015615 47 279 4.0 4.0 0.00 0.00 0.00 86 1015.1
20260507014614 47 0.0 2.0 0.00 0.00 0.00 86 1015.3
20260507013653 47 102 3.0 4.0 0.00 0.00 0.00 85 1015.2
20260507012612 47 170 4.0 4.0 0.00 0.00 0.00 85 1015.1
20260507011611 47 0.0 1.0 0.00 0.00 0.00 84 1015.1
20260507010609 48 0.0 0.0 0.00 0.00 0.00 84 1014.9
20260507005608 48 0.0 2.0 0.00 0.00 0.00 84 1014.9
20260507004607 48 357 2.0 2.0 0.00 0.00 0.00 84 1015.0
20260507003606 48 0.0 0.0 0.00 0.00 0.00 83 1015.0
20260507002604 49 0.0 0.0 0.00 0.00 0.00 83 1014.9
20260507001603 49 0.0 0.0 0.00 0.00 0.00 83 1014.9
20260507000602 49 0.0 0.0 0.00 0.00 0.00 82 1014.8
20260506235601 49 0.0 0.0 0.00 0.00 0.00 82 1014.7
20260506234600 50 290 2.0 2.0 0.00 0.00 0.00 82 1014.7
20260506233639 50 330 2.0 2.0 0.00 0.00 0.00 80 1014.4
20260506232557 50 303 1.0 2.0 0.00 0.00 0.00 79 1014.5
20260506231556 51 297 1.0 2.0 0.00 0.00 0.00 79 1014.3
20260506230555 51 336 2.0 2.0 0.00 0.00 0.00 78 1014.5
20260506225633 51 0.0 0.0 0.00 0.00 0.00 78 1014.4
20260506224552 51 0.0 1.0 0.00 0.00 0.00 77 1014.3
20260506223631 51 330 2.0 4.0 0.00 0.00 0.00 77 1014.5
20260506222550 51 0.0 2.0 0.00 0.00 0.00 77 1014.4
20260506221548 52 0.0 1.0 0.00 0.00 0.00 78 1014.3
20260506220547 52 11 2.0 3.0 0.00 0.00 0.00 79 1014.2
20260506215546 52 0.0 2.0 0.00 0.00 0.00 80 1014.2
20260506214625 52 337 3.0 4.0 0.00 0.00 0.00 80 1014.0
20260506213545 52 338 1.0 1.0 0.00 0.00 0.00 80 1014.0
20260506212542 52 0.0 3.0 0.00 0.00 0.00 80 1014.1
20260506211541 52 0.0 1.0 0.00 0.00 0.00 79 1013.7
20260506210540 52 7 2.0 3.0 0.00 0.00 0.00 78 1013.8
20260506205539 52 0.0 2.0 0.00 0.00 0.00 77 1013.8
20260506204617 52 355 2.0 2.0 0.00 0.00 0.00 76 1013.6
20260506203616 52 334 2.0 2.0 0.00 0.00 0.00 75 1013.9
20260506202535 52 351 1.0 2.0 0.00 0.00 0.00 75 1013.6
20260506201534 52 0.0 1.0 0.00 0.00 0.00 75 1013.6
20260506200533 53 324 2.0 2.0 0.00 0.00 0.00 74 1013.5
20260506195531 53 316 1.0 2.0 0.00 0.00 0.00 72 1013.5
20260506194530 54 0.0 0.0 0.00 0.00 0.00 70 1013.6
20260506193529 54 322 2.0 2.0 0.00 0.00 0.00 70 1013.4
20260506192528 54 0.0 1.0 0.00 0.00 0.00 71 1013.3
20260506191527 54 110 2.0 2.0 0.00 0.00 0.00 71 1013.2
20260506190525 54 0.0 0.0 0.00 0.00 0.00 70 1013.0
20260506185604 54 0.0 0.0 0.00 0.00 0.00 70 1013.0
20260506184523 54 0.0 0.0 0.00 0.00 0.00 70 1012.9
20260506183521 54 0.0 0.0 0.00 0.00 0.00 70 1012.7
20260506182600 54 0.0 0.0 0.00 0.00 0.00 70 1012.4
20260506181519 55 0.0 1.0 0.00 0.00 0.00 69 1012.3
20260506180558 55 0.0 0.0 0.00 0.00 0.00 68 1012.2
20260506175516 55 0.0 0.0 0.00 0.00 0.00 68 1012.3
20260506174515 55 127 3.0 3.0 0.00 0.00 0.00 68 1012.2
20260506173554 55 198 1.0 3.0 0.00 0.00 0.00 67 1012.0
20260506172513 56 0.0 0.0 0.00 0.00 0.00 67 1011.9
20260506171511 56 143 1.0 1.0 0.00 0.00 0.00 67 1012.0
20260506170510 56 0.0 0.0 0.00 0.00 0.00 66 1011.8
20260506165549 56 85 3.0 4.0 0.00 0.00 0.00 66 1011.9
20260506164508 56 0.0 1.0 0.00 0.00 0.00 65 1011.9
20260506163507 56 0.0 1.0 0.00 0.00 0.00 65 1011.9
20260506162505 56 151 2.0 3.0 0.00 0.00 0.00 65 1011.9
20260506161544 56 101 2.0 2.0 0.00 0.00 0.00 64 1011.9
20260506160503 56 106 4.0 6.0 0.00 0.00 0.00 64 1011.7
20260506155502 57 17 3.0 4.0 0.00 0.00 0.00 63 1011.9
20260506154500 56 324 2.0 2.0 0.00 0.00 0.00 63 1011.7
20260506153459 56 0.0 1.0 0.00 0.00 0.00 63 1011.7
20260506152458 56 0.0 1.0 0.00 0.00 0.00 64 1011.7
20260506151457 56 0.0 1.0 0.00 0.00 0.00 64 1011.7
20260506150455 56 307 1.0 1.0 0.00 0.00 0.00 63 1011.8
20260506145454 56 0.0 1.0 0.00 0.00 0.00 63 1011.6
20260506144453 57 0.0 2.0 0.00 0.00 0.00 63 1011.9
20260506143451 56 44 2.0 3.0 0.00 0.00 0.00 63 1011.5
20260506142450 56 116 4.0 4.0 0.00 0.00 0.00 62 1011.8
20260506141449 56 0.0 4.0 0.00 0.00 0.00 60 1011.7
20260506140448 57 176 2.0 3.0 0.00 0.00 0.00 59 1011.7
20260506135447 58 9 2.0 4.0 0.00 0.00 0.00 59 1011.6
20260506134526 58 0 1.0 2.0 0.00 0.00 0.00 60 1011.5
20260506133445 58 305 2.0 3.0 0.00 0.00 0.00 58 1011.4
20260506132443 59 82 4.0 8.0 0.00 0.00 0.00 57 1011.5
20260506131442 59 329 3.0 4.0 0.00 0.00 0.00 59 1011.2
20260506130441 58 77 1.0 2.0 0.00 0.00 0.00 63 1011.2
20260506125439 58 336 4.0 4.0 0.00 0.00 0.00 63 1011.1
20260506124458 57 71 2.0 4.0 0.00 0.00 0.00 64 1011.2
20260506123517 56 339 4.0 4.0 0.00 0.00 0.00 69 1011.1
20260506122516 56 323 4.0 6.0 0.00 0.00 0.00 69 1010.8
20260506121434 56 346 2.0 3.0 0.00 0.00 0.00 71 1010.9
20260506120433 56 334 5.0 5.0 0.00 0.00 0.00 71 1010.9
20260506115432 56 344 1.0 5.0 0.00 0.00 0.00 73 1010.9
20260506114431 56 326 4.0 5.0 0.00 0.00 0.00 73 1010.9
20260506113429 56 351 4.0 6.0 0.00 0.00 0.00 73 1010.9
20260506112428 56 354 6.0 7.0 0.00 0.00 0.00 73 1010.9
20260506111427 56 297 2.0 3.0 0.00 0.00 0.00 71 1010.8
20260506110426 57 308 6.0 6.0 0.00 0.00 0.00 69 1011.0
20260506105425 58 343 6.0 9.0 0.00 0.00 0.00 67 1010.9
20260506104424 60 23 3.0 4.0 0.00 0.00 0.00 57 1010.7
20260506103422 60 277 2.0 3.0 0.00 0.00 0.00 58 1010.6
20260506102421 59 314 4.0 4.0 0.00 0.00 0.00 61 1010.5
20260506101420 59 349 3.0 3.0 0.00 0.00 0.00 60 1010.8
20260506100419 60 353 1.0 2.0 0.00 0.00 0.00 62 1010.5
20260506095417 61 0.0 6.0 0.00 0.00 0.00 61 1010.6
20260506094456 60 25 2.0 4.0 0.00 0.00 0.00 65 1010.5
20260506093415 59 168 1.0 4.0 0.00 0.00 0.00 63 1010.6
20260506092414 59 0.0 4.0 0.00 0.00 0.00 65 1010.5
20260506091413 60 338 2.0 2.0 0.00 0.00 0.00 65 1010.2
20260506090411 60 106 4.0 6.0 0.00 0.00 0.00 67 1010.3
20260506085410 59 25 2.0 2.0 0.00 0.00 0.00 66 1010.4
20260506084409 58 307 1.0 3.0 0.00 0.00 0.00 70 1010.3
20260506083407 57 101 2.0 3.0 0.00 0.00 0.00 71 1010.3
20260506082406 57 354 3.0 5.0 0.00 0.00 0.00 73 1010.2
20260506081445 56 314 2.0 4.0 0.00 0.00 0.00 74 1010.2
20260506080404 56 355 6.0 7.0 0.00 0.00 0.00 80 1010.1
20260506073500 54 347 4.0 7.0 0.00 0.00 0.00 86 1010.0